Year,Month,Day,Hour,Minute,Value (Times are PST for temperature in C)
2018,04,23,00,00,5.40
2018,04,23,00,01,5.40
2018,04,23,00,02,5.40
2018,04,23,00,03,5.40
2018,04,23,00,04,5.40
2018,04,23,00,05,5.40
2018,04,23,00,06,5.40
2018,04,23,00,07,5.40
2018,04,23,00,08,5.40
2018,04,23,00,09,5.30
2018,04,23,00,10,5.30
2018,04,23,00,11,5.30
2018,04,23,00,12,5.30
2018,04,23,00,13,5.30
2018,04,23,00,14,5.30
2018,04,23,00,15,5.30
2018,04,23,00,16,5.30
2018,04,23,00,17,5.30
2018,04,23,00,18,5.30
2018,04,23,00,19,5.30
2018,04,23,00,20,5.30
2018,04,23,00,21,5.30
2018,04,23,00,22,5.20
2018,04,23,00,23,5.20
2018,04,23,00,24,5.20
2018,04,23,00,25,5.20
2018,04,23,00,26,5.20
2018,04,23,00,27,5.20
2018,04,23,00,28,5.20
2018,04,23,00,29,5.20
2018,04,23,00,30,5.20
2018,04,23,00,31,5.10
2018,04,23,00,32,5.10
2018,04,23,00,33,5.10
2018,04,23,00,34,5.10
2018,04,23,00,35,5.10
2018,04,23,00,36,5.10
2018,04,23,00,37,5.10
2018,04,23,00,38,5.10
2018,04,23,00,39,5.10
2018,04,23,00,40,5.10
2018,04,23,00,41,5.10
2018,04,23,00,42,5.00
2018,04,23,00,43,4.90
2018,04,23,00,44,4.90
2018,04,23,00,45,4.90
2018,04,23,00,46,4.90
2018,04,23,00,47,4.90
2018,04,23,00,48,4.90
2018,04,23,00,49,4.90
2018,04,23,00,50,4.90
2018,04,23,00,51,4.80
2018,04,23,00,52,4.80
2018,04,23,00,53,4.80
2018,04,23,00,54,4.80
2018,04,23,00,55,4.80
2018,04,23,00,56,4.70
2018,04,23,00,57,4.70
2018,04,23,00,58,4.70
2018,04,23,00,59,4.70
2018,04,23,01,00,4.70
2018,04,23,01,01,4.60
2018,04,23,01,02,4.60
2018,04,23,01,03,4.60
2018,04,23,01,04,4.60
2018,04,23,01,05,4.60
2018,04,23,01,06,4.50
2018,04,23,01,07,4.50
2018,04,23,01,08,4.50
2018,04,23,01,09,4.50
2018,04,23,01,10,4.50
2018,04,23,01,11,4.50
2018,04,23,01,12,4.50
2018,04,23,01,13,4.50
2018,04,23,01,14,4.50
2018,04,23,01,15,4.50
2018,04,23,01,16,4.40
2018,04,23,01,17,4.40
2018,04,23,01,18,4.40
2018,04,23,01,19,4.40
2018,04,23,01,20,4.40
2018,04,23,01,21,4.30
2018,04,23,01,22,4.30
2018,04,23,01,23,4.30
2018,04,23,01,24,4.20
2018,04,23,01,25,4.20
2018,04,23,01,26,4.20
2018,04,23,01,27,4.20
2018,04,23,01,28,4.20
2018,04,23,01,29,4.20
2018,04,23,01,30,4.20
2018,04,23,01,31,4.10
2018,04,23,01,32,4.10
2018,04,23,01,33,4.10
2018,04,23,01,34,4.10
2018,04,23,01,35,4.10
2018,04,23,01,36,4.10
2018,04,23,01,37,4.10
2018,04,23,01,38,4.10
2018,04,23,01,39,4.10
2018,04,23,01,40,4.00
2018,04,23,01,41,4.00
2018,04,23,01,42,4.00
2018,04,23,01,43,4.00
2018,04,23,01,44,4.00
2018,04,23,01,45,4.00
2018,04,23,01,46,3.90
2018,04,23,01,47,3.90
2018,04,23,01,48,3.90
2018,04,23,01,49,3.90
2018,04,23,01,50,3.90
2018,04,23,01,51,3.80
2018,04,23,01,52,3.80
2018,04,23,01,53,3.80
2018,04,23,01,54,3.80
2018,04,23,01,55,3.80
2018,04,23,01,56,3.80
2018,04,23,01,57,3.80
2018,04,23,01,58,3.80
2018,04,23,01,59,3.80
2018,04,23,02,00,3.80
2018,04,23,02,01,3.80
2018,04,23,02,02,3.80
2018,04,23,02,03,3.80
2018,04,23,02,04,3.70
2018,04,23,02,05,3.70
2018,04,23,02,06,3.70
2018,04,23,02,07,3.70
2018,04,23,02,08,3.70
2018,04,23,02,09,3.70
2018,04,23,02,10,3.70
2018,04,23,02,11,3.70
2018,04,23,02,12,3.70
2018,04,23,02,13,3.70
2018,04,23,02,14,3.70
2018,04,23,02,15,3.70
2018,04,23,02,16,3.70
2018,04,23,02,17,3.70
2018,04,23,02,18,3.60
2018,04,23,02,19,3.60
2018,04,23,02,20,3.60
2018,04,23,02,21,3.60
2018,04,23,02,22,3.60
2018,04,23,02,23,3.60
2018,04,23,02,24,3.60
2018,04,23,02,25,3.60
2018,04,23,02,26,3.60
2018,04,23,02,27,3.60
2018,04,23,02,28,3.60
2018,04,23,02,29,3.60
2018,04,23,02,30,3.50
2018,04,23,02,31,3.50
2018,04,23,02,32,3.50
2018,04,23,02,33,3.50
2018,04,23,02,34,3.50
2018,04,23,02,35,3.50
2018,04,23,02,36,3.40
2018,04,23,02,37,3.40
2018,04,23,02,38,3.40
2018,04,23,02,39,3.40
2018,04,23,02,40,3.40
2018,04,23,02,41,3.40
2018,04,23,02,42,3.40
2018,04,23,02,43,3.40
2018,04,23,02,44,3.30
2018,04,23,02,45,3.30
2018,04,23,02,46,3.30
2018,04,23,02,47,3.30
2018,04,23,02,48,3.30
2018,04,23,02,49,3.30
2018,04,23,02,50,3.30
2018,04,23,02,51,3.30
2018,04,23,02,52,3.30
2018,04,23,02,53,3.20
2018,04,23,02,54,3.20
2018,04,23,02,55,3.20
2018,04,23,02,56,3.20
2018,04,23,02,57,3.20
2018,04,23,02,58,3.20
2018,04,23,02,59,3.20
2018,04,23,03,00,3.20
2018,04,23,03,01,3.20
2018,04,23,03,02,3.10
2018,04,23,03,03,3.10
2018,04,23,03,04,3.10
2018,04,23,03,05,3.10
2018,04,23,03,06,3.10
2018,04,23,03,07,3.10
2018,04,23,03,08,3.10
2018,04,23,03,09,3.10
2018,04,23,03,10,3.10
2018,04,23,03,11,3.10
2018,04,23,03,12,3.10
2018,04,23,03,13,3.10
2018,04,23,03,14,3.00
2018,04,23,03,15,2.90
2018,04,23,03,16,2.90
2018,04,23,03,17,2.90
2018,04,23,03,18,2.90
2018,04,23,03,19,2.90
2018,04,23,03,20,2.90
2018,04,23,03,21,2.90
2018,04,23,03,22,2.90
2018,04,23,03,23,2.90
2018,04,23,03,24,2.90
2018,04,23,03,25,2.90
2018,04,23,03,26,2.80
2018,04,23,03,27,2.80
2018,04,23,03,28,2.80
2018,04,23,03,29,2.80
2018,04,23,03,30,2.80
2018,04,23,03,31,2.80
2018,04,23,03,32,2.80
2018,04,23,03,33,2.80
2018,04,23,03,34,2.80
2018,04,23,03,35,2.80
2018,04,23,03,36,2.70
2018,04,23,03,37,2.70
2018,04,23,03,38,2.70
2018,04,23,03,39,2.80
2018,04,23,03,40,2.80
2018,04,23,03,41,2.80
2018,04,23,03,42,2.80
2018,04,23,03,43,2.80
2018,04,23,03,44,2.80
2018,04,23,03,45,2.70
2018,04,23,03,46,2.70
2018,04,23,03,47,2.70
2018,04,23,03,48,2.70
2018,04,23,03,49,2.70
2018,04,23,03,50,2.70
2018,04,23,03,51,2.70
2018,04,23,03,52,2.70
2018,04,23,03,53,2.70
2018,04,23,03,54,2.70
2018,04,23,03,55,2.70
2018,04,23,03,56,2.70
2018,04,23,03,57,2.70
2018,04,23,03,58,2.70
2018,04,23,03,59,2.70
2018,04,23,04,00,2.70
2018,04,23,04,01,2.70
2018,04,23,04,02,2.70
2018,04,23,04,03,2.70
2018,04,23,04,04,2.70
2018,04,23,04,05,2.70
2018,04,23,04,06,2.70
2018,04,23,04,07,2.70
2018,04,23,04,08,2.70
2018,04,23,04,09,2.60
2018,04,23,04,10,2.60
2018,04,23,04,11,2.60
2018,04,23,04,12,2.60
2018,04,23,04,13,2.60
2018,04,23,04,14,2.60
2018,04,23,04,15,2.60
2018,04,23,04,16,2.50
2018,04,23,04,17,2.50
2018,04,23,04,18,2.50
2018,04,23,04,19,2.50
2018,04,23,04,20,2.50
2018,04,23,04,21,2.50
2018,04,23,04,22,2.50
2018,04,23,04,23,2.50
2018,04,23,04,24,2.50
2018,04,23,04,25,2.40
2018,04,23,04,26,2.40
2018,04,23,04,27,2.40
2018,04,23,04,28,2.40
2018,04,23,04,29,2.40
2018,04,23,04,30,2.40
2018,04,23,04,31,2.40
2018,04,23,04,32,2.40
2018,04,23,04,33,2.40
2018,04,23,04,34,2.40
2018,04,23,04,35,2.40
2018,04,23,04,36,2.40
2018,04,23,04,37,2.40
2018,04,23,04,38,2.40
2018,04,23,04,39,2.40
2018,04,23,04,40,2.40
2018,04,23,04,41,2.30
2018,04,23,04,42,2.30
2018,04,23,04,43,2.30
2018,04,23,04,44,2.30
2018,04,23,04,45,2.30
2018,04,23,04,46,2.30
2018,04,23,04,47,2.30
2018,04,23,04,48,2.20
2018,04,23,04,49,2.20
2018,04,23,04,50,2.20
2018,04,23,04,51,2.20
2018,04,23,04,52,2.20
2018,04,23,04,53,2.20
2018,04,23,04,54,2.20
2018,04,23,04,55,2.20
2018,04,23,04,56,2.20
2018,04,23,04,57,2.20
2018,04,23,04,58,2.20
2018,04,23,04,59,2.20
2018,04,23,05,00,2.20
2018,04,23,05,01,2.20
2018,04,23,05,02,2.20
2018,04,23,05,03,2.20
2018,04,23,05,04,2.20
2018,04,23,05,05,2.20
2018,04,23,05,06,2.20
2018,04,23,05,07,2.20
2018,04,23,05,08,2.10
2018,04,23,05,09,2.10
2018,04,23,05,10,2.10
2018,04,23,05,11,2.10
2018,04,23,05,12,2.10
2018,04,23,05,13,2.10
2018,04,23,05,14,2.10
2018,04,23,05,15,2.00
2018,04,23,05,16,2.00
2018,04,23,05,17,2.00
2018,04,23,05,18,2.00
2018,04,23,05,19,2.00
2018,04,23,05,20,2.00
2018,04,23,05,21,2.00
2018,04,23,05,22,2.00
2018,04,23,05,23,2.00
2018,04,23,05,24,2.00
2018,04,23,05,25,2.00
2018,04,23,05,26,1.90
2018,04,23,05,27,1.90
2018,04,23,05,28,1.90
2018,04,23,05,29,1.90
2018,04,23,05,30,1.90
2018,04,23,05,31,1.80
2018,04,23,05,32,1.80
2018,04,23,05,33,1.80
2018,04,23,05,34,1.80
2018,04,23,05,35,1.80
2018,04,23,05,36,1.80
2018,04,23,05,37,1.80
2018,04,23,05,38,1.70
2018,04,23,05,39,1.70
2018,04,23,05,40,1.70
2018,04,23,05,41,1.70
2018,04,23,05,42,1.70
2018,04,23,05,43,1.70
2018,04,23,05,44,1.70
2018,04,23,05,45,1.80
2018,04,23,05,46,1.80
2018,04,23,05,47,1.80
2018,04,23,05,48,1.80
2018,04,23,05,49,1.80
2018,04,23,05,50,1.80
2018,04,23,05,51,1.80
2018,04,23,05,52,1.80
2018,04,23,05,53,1.80
2018,04,23,05,54,1.80
2018,04,23,05,55,1.90
2018,04,23,05,56,1.90
2018,04,23,05,57,1.90
2018,04,23,05,58,1.90
2018,04,23,05,59,1.90
2018,04,23,06,00,2.00
2018,04,23,06,01,2.00
2018,04,23,06,02,2.00
2018,04,23,06,03,2.00
2018,04,23,06,04,2.00
2018,04,23,06,05,2.00
2018,04,23,06,06,2.00
2018,04,23,06,07,2.10
2018,04,23,06,08,2.10
2018,04,23,06,09,2.10
2018,04,23,06,10,2.10
2018,04,23,06,11,2.10
2018,04,23,06,12,2.10
2018,04,23,06,13,2.10
2018,04,23,06,14,2.20
2018,04,23,06,15,2.20
2018,04,23,06,16,2.20
2018,04,23,06,17,2.20
2018,04,23,06,18,2.20
2018,04,23,06,19,2.20
2018,04,23,06,20,2.20
2018,04,23,06,21,2.20
2018,04,23,06,22,2.20
2018,04,23,06,23,2.20
2018,04,23,06,24,2.20
2018,04,23,06,25,2.20
2018,04,23,06,26,2.20
2018,04,23,06,27,2.20
2018,04,23,06,28,2.20
2018,04,23,06,29,2.20
2018,04,23,06,30,2.20
2018,04,23,06,31,2.20
2018,04,23,06,32,2.20
2018,04,23,06,33,2.20
2018,04,23,06,34,2.20
2018,04,23,06,35,2.20
2018,04,23,06,36,2.20
2018,04,23,06,37,2.20
2018,04,23,06,38,2.20
2018,04,23,06,39,2.20
2018,04,23,06,40,2.20
2018,04,23,06,41,2.20
2018,04,23,06,42,2.20
2018,04,23,06,43,2.20
2018,04,23,06,44,2.30
2018,04,23,06,45,2.30
2018,04,23,06,46,2.30
2018,04,23,06,47,2.30
2018,04,23,06,48,2.40
2018,04,23,06,49,2.40
2018,04,23,06,50,2.40
2018,04,23,06,51,2.50
2018,04,23,06,52,2.50
2018,04,23,06,53,2.60
2018,04,23,06,54,2.60
2018,04,23,06,55,2.70
2018,04,23,06,56,2.70
2018,04,23,06,57,2.70
2018,04,23,06,58,2.70
2018,04,23,06,59,2.80
2018,04,23,07,00,2.90
2018,04,23,07,01,2.90
2018,04,23,07,02,2.90
2018,04,23,07,03,2.90
2018,04,23,07,04,2.90
2018,04,23,07,05,3.10
2018,04,23,07,06,3.10
2018,04,23,07,07,3.10
2018,04,23,07,08,3.10
2018,04,23,07,09,3.20
2018,04,23,07,10,3.20
2018,04,23,07,11,3.30
2018,04,23,07,12,3.30
2018,04,23,07,13,3.40
2018,04,23,07,14,3.50
2018,04,23,07,15,3.50
2018,04,23,07,16,3.60
2018,04,23,07,17,3.60
2018,04,23,07,18,3.70
2018,04,23,07,19,3.70
2018,04,23,07,20,3.80
2018,04,23,07,21,3.80
2018,04,23,07,22,3.80
2018,04,23,07,23,3.90
2018,04,23,07,24,3.90
2018,04,23,07,25,4.00
2018,04,23,07,26,4.00
2018,04,23,07,27,4.10
2018,04,23,07,28,4.10
2018,04,23,07,29,4.20
2018,04,23,07,30,4.20
2018,04,23,07,31,4.30
2018,04,23,07,32,4.40
2018,04,23,07,33,4.50
2018,04,23,07,34,4.60
2018,04,23,07,35,4.60
2018,04,23,07,36,4.70
2018,04,23,07,37,4.80
2018,04,23,07,38,4.90
2018,04,23,07,39,5.00
2018,04,23,07,40,5.10
2018,04,23,07,41,5.10
2018,04,23,07,42,5.30
2018,04,23,07,43,5.40
2018,04,23,07,44,5.50
2018,04,23,07,45,5.60
2018,04,23,07,46,5.70
2018,04,23,07,47,5.80
2018,04,23,07,48,5.90
2018,04,23,07,49,6.00
2018,04,23,07,50,6.10
2018,04,23,07,51,6.20
2018,04,23,07,52,6.40
2018,04,23,07,53,6.50
2018,04,23,07,54,6.70
2018,04,23,07,55,6.80
2018,04,23,07,56,7.00
2018,04,23,07,57,7.30
2018,04,23,07,58,7.50
2018,04,23,07,59,7.70
2018,04,23,08,00,7.80
2018,04,23,08,01,8.00
2018,04,23,08,02,8.20
2018,04,23,08,03,8.40
2018,04,23,08,04,8.50
2018,04,23,08,05,8.60
2018,04,23,08,06,8.70
2018,04,23,08,07,8.80
2018,04,23,08,08,9.00
2018,04,23,08,09,9.00
2018,04,23,08,10,9.20
2018,04,23,08,11,9.30
2018,04,23,08,12,9.50
2018,04,23,08,13,9.60
2018,04,23,08,14,9.70
2018,04,23,08,15,9.70
2018,04,23,08,16,9.70
2018,04,23,08,17,9.80
2018,04,23,08,18,9.80
2018,04,23,08,19,9.90
2018,04,23,08,20,9.90
2018,04,23,08,21,9.90
2018,04,23,08,22,10.10
2018,04,23,08,23,10.10
2018,04,23,08,24,10.10
2018,04,23,08,25,10.10
2018,04,23,08,26,10.20
2018,04,23,08,27,10.20
2018,04,23,08,28,10.30
2018,04,23,08,29,10.30
2018,04,23,08,30,10.40
2018,04,23,08,31,10.40
2018,04,23,08,32,10.40
2018,04,23,08,33,10.40
2018,04,23,08,34,10.40
2018,04,23,08,35,10.50
2018,04,23,08,36,10.60
2018,04,23,08,37,10.60
2018,04,23,08,38,10.70
2018,04,23,08,39,10.70
2018,04,23,08,40,10.70
2018,04,23,08,41,10.70
2018,04,23,08,42,10.70
2018,04,23,08,43,10.80
2018,04,23,08,44,10.80
2018,04,23,08,45,10.80
2018,04,23,08,46,10.80
2018,04,23,08,47,10.80
2018,04,23,08,48,10.90
2018,04,23,08,49,10.90
2018,04,23,08,50,10.90
2018,04,23,08,51,10.90
2018,04,23,08,52,11.00
2018,04,23,08,53,11.10
2018,04,23,08,54,11.10
2018,04,23,08,55,11.10
2018,04,23,08,56,11.10
2018,04,23,08,57,11.10
2018,04,23,08,58,11.20
2018,04,23,08,59,11.20
2018,04,23,09,00,11.20
2018,04,23,09,01,11.20
2018,04,23,09,02,11.20
2018,04,23,09,03,11.30
2018,04,23,09,04,11.30
2018,04,23,09,05,11.30
2018,04,23,09,06,11.40
2018,04,23,09,07,11.40
2018,04,23,09,08,11.40
2018,04,23,09,09,11.50
2018,04,23,09,10,11.60
2018,04,23,09,11,11.60
2018,04,23,09,12,11.60
2018,04,23,09,13,11.60
2018,04,23,09,14,11.60
2018,04,23,09,15,11.60
2018,04,23,09,16,11.60
2018,04,23,09,17,11.70
2018,04,23,09,18,11.80
2018,04,23,09,19,11.80
2018,04,23,09,20,11.80
2018,04,23,09,21,11.70
2018,04,23,09,22,11.60
2018,04,23,09,23,11.60
2018,04,23,09,24,11.60
2018,04,23,09,25,11.70
2018,04,23,09,26,11.80
2018,04,23,09,27,11.80
2018,04,23,09,28,11.80
2018,04,23,09,29,11.90
2018,04,23,09,30,12.00
2018,04,23,09,31,12.00
2018,04,23,09,32,12.00
2018,04,23,09,33,12.00
2018,04,23,09,34,12.10
2018,04,23,09,35,12.10
2018,04,23,09,36,12.10
2018,04,23,09,37,12.10
2018,04,23,09,38,12.20
2018,04,23,09,39,12.10
2018,04,23,09,40,12.10
2018,04,23,09,41,12.10
2018,04,23,09,42,12.10
2018,04,23,09,43,12.20
2018,04,23,09,44,12.20
2018,04,23,09,45,12.30
2018,04,23,09,46,12.30
2018,04,23,09,47,12.50
2018,04,23,09,48,12.50
2018,04,23,09,49,12.60
2018,04,23,09,50,12.60
2018,04,23,09,51,12.60
2018,04,23,09,52,12.60
2018,04,23,09,53,12.60
2018,04,23,09,54,12.50
2018,04,23,09,55,12.50
2018,04,23,09,56,12.50
2018,04,23,09,57,12.60
2018,04,23,09,58,12.60
2018,04,23,09,59,12.70
2018,04,23,10,00,12.70
2018,04,23,10,01,12.80
2018,04,23,10,02,12.80
2018,04,23,10,03,12.80
2018,04,23,10,04,12.80
2018,04,23,10,05,12.80
2018,04,23,10,06,12.90
2018,04,23,10,07,12.90
2018,04,23,10,08,13.00
2018,04,23,10,09,13.00
2018,04,23,10,10,13.00
2018,04,23,10,11,13.00
2018,04,23,10,12,13.10
2018,04,23,10,13,13.10
2018,04,23,10,14,13.10
2018,04,23,10,15,13.10
2018,04,23,10,16,13.10
2018,04,23,10,17,13.20
2018,04,23,10,18,13.20
2018,04,23,10,19,13.30
2018,04,23,10,20,13.30
2018,04,23,10,21,13.40
2018,04,23,10,22,13.50
2018,04,23,10,23,13.50
2018,04,23,10,24,13.60
2018,04,23,10,25,13.60
2018,04,23,10,26,13.60
2018,04,23,10,27,13.60
2018,04,23,10,28,13.60
2018,04,23,10,29,13.60
2018,04,23,10,30,13.70
2018,04,23,10,31,13.70
2018,04,23,10,32,13.70
2018,04,23,10,33,13.60
2018,04,23,10,34,13.70
2018,04,23,10,35,13.70
2018,04,23,10,36,13.70
2018,04,23,10,37,13.80
2018,04,23,10,38,13.80
2018,04,23,10,39,13.90
2018,04,23,10,40,13.90
2018,04,23,10,41,13.90
2018,04,23,10,42,13.80
2018,04,23,10,43,13.90
2018,04,23,10,44,13.90
2018,04,23,10,45,14.00
2018,04,23,10,46,14.00
2018,04,23,10,47,14.10
2018,04,23,10,48,14.20
2018,04,23,10,49,14.30
2018,04,23,10,50,14.40
2018,04,23,10,51,14.50
2018,04,23,10,52,14.60
2018,04,23,10,53,14.70
2018,04,23,10,54,14.70
2018,04,23,10,55,14.80
2018,04,23,10,56,14.70
2018,04,23,10,57,14.70
2018,04,23,10,58,14.60
2018,04,23,10,59,14.50
2018,04,23,11,00,14.50
2018,04,23,11,01,14.50
2018,04,23,11,02,14.50
2018,04,23,11,03,14.50
2018,04,23,11,04,14.50
2018,04,23,11,05,14.50
2018,04,23,11,06,14.40
2018,04,23,11,07,14.40
2018,04,23,11,08,14.50
2018,04,23,11,09,14.60
2018,04,23,11,10,14.70
2018,04,23,11,11,14.70
2018,04,23,11,12,14.70
2018,04,23,11,13,14.80
2018,04,23,11,14,14.80
2018,04,23,11,15,14.80
2018,04,23,11,16,14.80
2018,04,23,11,17,14.70
2018,04,23,11,18,14.70
2018,04,23,11,19,14.70
2018,04,23,11,20,14.80
2018,04,23,11,21,14.80
2018,04,23,11,22,14.80
2018,04,23,11,23,14.70
2018,04,23,11,24,14.70
2018,04,23,11,25,14.60
2018,04,23,11,26,14.70
2018,04,23,11,27,14.70
2018,04,23,11,28,14.80
2018,04,23,11,29,14.90
2018,04,23,11,30,15.10
2018,04,23,11,31,15.20
2018,04,23,11,32,15.20
2018,04,23,11,33,15.20
2018,04,23,11,34,15.30
2018,04,23,11,35,15.30
2018,04,23,11,36,15.30
2018,04,23,11,37,15.40
2018,04,23,11,38,15.50
2018,04,23,11,39,15.50
2018,04,23,11,40,15.60
2018,04,23,11,41,15.60
2018,04,23,11,42,15.60
2018,04,23,11,43,15.60
2018,04,23,11,44,15.60
2018,04,23,11,45,15.70
2018,04,23,11,46,15.70
2018,04,23,11,47,15.70
2018,04,23,11,48,15.60
2018,04,23,11,49,15.60
2018,04,23,11,50,15.60
2018,04,23,11,51,15.70
2018,04,23,11,52,15.70
2018,04,23,11,53,15.70
2018,04,23,11,54,15.80
2018,04,23,11,55,15.80
2018,04,23,11,56,15.80
2018,04,23,11,57,15.80
2018,04,23,11,58,15.90
2018,04,23,11,59,15.90
2018,04,23,12,00,15.80
2018,04,23,12,01,15.90
2018,04,23,12,02,15.90
2018,04,23,12,03,15.80
2018,04,23,12,04,15.80
2018,04,23,12,05,15.80
2018,04,23,12,06,15.80
2018,04,23,12,07,15.70
2018,04,23,12,08,15.70
2018,04,23,12,09,15.70
2018,04,23,12,10,15.70
2018,04,23,12,11,15.80
2018,04,23,12,12,15.90
2018,04,23,12,13,15.90
2018,04,23,12,14,16.10
2018,04,23,12,15,16.10
2018,04,23,12,16,16.20
2018,04,23,12,17,16.20
2018,04,23,12,18,16.30
2018,04,23,12,19,16.20
2018,04,23,12,20,16.30
2018,04,23,12,21,16.30
2018,04,23,12,22,16.40
2018,04,23,12,23,16.30
2018,04,23,12,24,16.20
2018,04,23,12,25,16.20
2018,04,23,12,26,16.10
2018,04,23,12,27,16.10
2018,04,23,12,28,16.10
2018,04,23,12,29,16.10
2018,04,23,12,30,16.20
2018,04,23,12,31,16.20
2018,04,23,12,32,16.20
2018,04,23,12,33,16.20
2018,04,23,12,34,16.10
2018,04,23,12,35,16.10
2018,04,23,12,36,16.20
2018,04,23,12,37,16.30
2018,04,23,12,38,16.30
2018,04,23,12,39,16.40
2018,04,23,12,40,16.40
2018,04,23,12,41,16.40
2018,04,23,12,42,16.40
2018,04,23,12,43,16.40
2018,04,23,12,44,16.60
2018,04,23,12,45,16.50
2018,04,23,12,46,16.40
2018,04,23,12,47,16.40
2018,04,23,12,48,16.40
2018,04,23,12,49,16.40
2018,04,23,12,50,16.60
2018,04,23,12,51,16.60
2018,04,23,12,52,16.60
2018,04,23,12,53,16.60
2018,04,23,12,54,16.70
2018,04,23,12,55,16.70
2018,04,23,12,56,16.70
2018,04,23,12,57,16.70
2018,04,23,12,58,16.70
2018,04,23,12,59,16.70
2018,04,23,13,00,16.70
2018,04,23,13,01,16.70
2018,04,23,13,02,16.70
2018,04,23,13,03,16.70
2018,04,23,13,04,16.80
2018,04,23,13,05,16.80
2018,04,23,13,06,16.90
2018,04,23,13,07,16.90
2018,04,23,13,08,17.00
2018,04,23,13,09,17.00
2018,04,23,13,10,16.90
2018,04,23,13,11,16.80
2018,04,23,13,12,16.80
2018,04,23,13,13,16.80
2018,04,23,13,14,16.80
2018,04,23,13,15,16.90
2018,04,23,13,16,16.90
2018,04,23,13,17,16.90
2018,04,23,13,18,16.90
2018,04,23,13,19,17.00
2018,04,23,13,20,17.10
2018,04,23,13,21,17.30
2018,04,23,13,22,17.30
2018,04,23,13,23,17.30
2018,04,23,13,24,17.20
2018,04,23,13,25,17.20
2018,04,23,13,26,17.10
2018,04,23,13,27,17.10
2018,04,23,13,28,17.10
2018,04,23,13,29,17.20
2018,04,23,13,30,17.30
2018,04,23,13,31,17.20
2018,04,23,13,32,17.10
2018,04,23,13,33,17.10
2018,04,23,13,34,17.10
2018,04,23,13,35,17.20
2018,04,23,13,36,17.20
2018,04,23,13,37,17.30
2018,04,23,13,38,17.40
2018,04,23,13,39,17.50
2018,04,23,13,40,17.50
2018,04,23,13,41,17.60
2018,04,23,13,42,17.60
2018,04,23,13,43,17.80
2018,04,23,13,44,17.90
2018,04,23,13,45,17.90
2018,04,23,13,46,17.80
2018,04,23,13,47,17.60
2018,04,23,13,48,17.50
2018,04,23,13,49,17.30
2018,04,23,13,50,17.30
2018,04,23,13,51,17.20
2018,04,23,13,52,17.20
2018,04,23,13,53,17.10
2018,04,23,13,54,17.00
2018,04,23,13,55,17.00
2018,04,23,13,56,16.90
2018,04,23,13,57,16.90
2018,04,23,13,58,16.90
2018,04,23,13,59,17.00
2018,04,23,14,00,17.10
2018,04,23,14,01,17.30
2018,04,23,14,02,17.30
2018,04,23,14,03,17.40
2018,04,23,14,04,17.40
2018,04,23,14,05,17.40
2018,04,23,14,06,17.40
2018,04,23,14,07,17.20
2018,04,23,14,08,17.20
2018,04,23,14,09,17.10
2018,04,23,14,10,17.10
2018,04,23,14,11,17.00
2018,04,23,14,12,17.00
2018,04,23,14,13,17.10
2018,04,23,14,14,17.30
2018,04,23,14,15,17.40
2018,04,23,14,16,17.40
2018,04,23,14,17,17.40
2018,04,23,14,18,17.30
2018,04,23,14,19,17.40
2018,04,23,14,20,17.50
2018,04,23,14,21,17.60
2018,04,23,14,22,17.70
2018,04,23,14,23,17.80
2018,04,23,14,24,17.90
2018,04,23,14,25,18.00
2018,04,23,14,26,18.10
2018,04,23,14,27,18.20
2018,04,23,14,28,18.20
2018,04,23,14,29,18.10
2018,04,23,14,30,18.10
2018,04,23,14,31,18.10
2018,04,23,14,32,18.10
2018,04,23,14,33,18.10
2018,04,23,14,34,18.10
2018,04,23,14,35,18.20
2018,04,23,14,36,18.30
2018,04,23,14,37,18.30
2018,04,23,14,38,18.30
2018,04,23,14,39,18.30
2018,04,23,14,40,18.30
2018,04,23,14,41,18.20
2018,04,23,14,42,18.20
2018,04,23,14,43,18.10
2018,04,23,14,44,18.00
2018,04,23,14,45,17.90
2018,04,23,14,46,18.00
2018,04,23,14,47,18.10
2018,04,23,14,48,18.20
2018,04,23,14,49,18.20
2018,04,23,14,50,18.20
2018,04,23,14,51,18.20
2018,04,23,14,52,18.20
2018,04,23,14,53,18.10
2018,04,23,14,54,18.10
2018,04,23,14,55,18.10
2018,04,23,14,56,18.10
2018,04,23,14,57,18.10
2018,04,23,14,58,18.10
2018,04,23,14,59,18.10
2018,04,23,15,00,18.00
2018,04,23,15,01,18.00
2018,04,23,15,02,18.10
2018,04,23,15,03,18.10
2018,04,23,15,04,18.00
2018,04,23,15,05,18.00
2018,04,23,15,06,18.10
2018,04,23,15,07,18.10
2018,04,23,15,08,18.10
2018,04,23,15,09,18.20
2018,04,23,15,10,18.10
2018,04,23,15,11,18.10
2018,04,23,15,12,18.10
2018,04,23,15,13,18.10
2018,04,23,15,14,18.20
2018,04,23,15,15,18.40
2018,04,23,15,16,18.50
2018,04,23,15,17,18.50
2018,04,23,15,18,18.60
2018,04,23,15,19,18.70
2018,04,23,15,20,18.70
2018,04,23,15,21,18.70
2018,04,23,15,22,18.70
2018,04,23,15,23,18.70
2018,04,23,15,24,18.80
2018,04,23,15,25,18.80
2018,04,23,15,26,18.90
2018,04,23,15,27,18.90
2018,04,23,15,28,18.90
2018,04,23,15,29,18.90
2018,04,23,15,30,18.90
2018,04,23,15,31,19.00
2018,04,23,15,32,19.10
2018,04,23,15,33,19.10
2018,04,23,15,34,19.10
2018,04,23,15,35,19.20
2018,04,23,15,36,19.20
2018,04,23,15,37,19.10
2018,04,23,15,38,19.10
2018,04,23,15,39,19.10
2018,04,23,15,40,19.10
2018,04,23,15,41,19.20
2018,04,23,15,42,19.20
2018,04,23,15,43,19.20
2018,04,23,15,44,19.10
2018,04,23,15,45,19.10
2018,04,23,15,46,19.10
2018,04,23,15,47,19.10
2018,04,23,15,48,19.10
2018,04,23,15,49,19.10
2018,04,23,15,50,19.10
2018,04,23,15,51,19.10
2018,04,23,15,52,19.10
2018,04,23,15,53,19.10
2018,04,23,15,54,19.10
2018,04,23,15,55,19.20
2018,04,23,15,56,19.20
2018,04,23,15,57,19.30
2018,04,23,15,58,19.40
2018,04,23,15,59,19.40
2018,04,23,16,00,19.30
2018,04,23,16,01,19.30
2018,04,23,16,02,19.30
2018,04,23,16,03,19.30
2018,04,23,16,04,19.30
2018,04,23,16,05,19.30
2018,04,23,16,06,19.30
2018,04,23,16,07,19.20
2018,04,23,16,08,19.30
2018,04,23,16,09,19.20
2018,04,23,16,10,19.20
2018,04,23,16,11,19.20
2018,04,23,16,12,19.20
2018,04,23,16,13,19.20
2018,04,23,16,14,19.20
2018,04,23,16,15,19.20
2018,04,23,16,16,19.10
2018,04,23,16,17,19.00
2018,04,23,16,18,18.90
2018,04,23,16,19,18.90
2018,04,23,16,20,18.90
2018,04,23,16,21,19.00
2018,04,23,16,22,19.10
2018,04,23,16,23,19.10
2018,04,23,16,24,19.20
2018,04,23,16,25,19.30
2018,04,23,16,26,19.40
2018,04,23,16,27,19.50
2018,04,23,16,28,19.50
2018,04,23,16,29,19.50
2018,04,23,16,30,19.50
2018,04,23,16,31,19.40
2018,04,23,16,32,19.40
2018,04,23,16,33,19.40
2018,04,23,16,34,19.40
2018,04,23,16,35,19.40
2018,04,23,16,36,19.30
2018,04,23,16,37,19.30
2018,04,23,16,38,19.30
2018,04,23,16,39,19.30
2018,04,23,16,40,19.40
2018,04,23,16,41,19.50
2018,04,23,16,42,19.40
2018,04,23,16,43,19.40
2018,04,23,16,44,19.40
2018,04,23,16,45,19.30
2018,04,23,16,46,19.30
2018,04,23,16,47,19.30
2018,04,23,16,48,19.30
2018,04,23,16,49,19.30
2018,04,23,16,50,19.30
2018,04,23,16,51,19.30
2018,04,23,16,52,19.30
2018,04,23,16,53,19.30
2018,04,23,16,54,19.20
2018,04,23,16,55,19.20
2018,04,23,16,56,19.20
2018,04,23,16,57,19.10
2018,04,23,16,58,19.10
2018,04,23,16,59,19.10
2018,04,23,17,00,19.10
2018,04,23,17,01,19.10
2018,04,23,17,02,19.10
2018,04,23,17,03,19.00
2018,04,23,17,04,18.90
2018,04,23,17,05,18.90
2018,04,23,17,06,18.90
2018,04,23,17,07,18.90
2018,04,23,17,08,19.00
2018,04,23,17,09,19.10
2018,04,23,17,10,19.10
2018,04,23,17,11,19.10
2018,04,23,17,12,19.10
2018,04,23,17,13,19.10
2018,04,23,17,14,19.10
2018,04,23,17,15,19.10
2018,04,23,17,16,19.10
2018,04,23,17,17,19.10
2018,04,23,17,18,19.10
2018,04,23,17,19,19.10
2018,04,23,17,20,19.10
2018,04,23,17,21,19.10
2018,04,23,17,22,19.10
2018,04,23,17,23,19.10
2018,04,23,17,24,19.10
2018,04,23,17,25,19.10
2018,04,23,17,26,19.10
2018,04,23,17,27,19.00
2018,04,23,17,28,18.90
2018,04,23,17,29,18.90
2018,04,23,17,30,18.90
2018,04,23,17,31,18.90
2018,04,23,17,32,18.90
2018,04,23,17,33,18.80
2018,04,23,17,34,18.80
2018,04,23,17,35,18.80
2018,04,23,17,36,18.70
2018,04,23,17,37,18.70
2018,04,23,17,38,18.70
2018,04,23,17,39,18.80
2018,04,23,17,40,18.90
2018,04,23,17,41,18.90